| time (UTC) | temp F | wind direction | speed MPH | gust MPH | rain 1hr in | rain 24hr in | rain mn in | humidity % | barometer mb |
| 20260510131519 | 61 | 22 | 13.0 | 18.0 | 0.00 | 0.00 | 0.00 | 76 | 1016.7 |
| 20260510130053 | 61 | 32 | 12.0 | 16.0 | 0.00 | 0.00 | 0.00 | 76 | 1016.4 |
| 20260510124540 | 60 | 36 | 10.0 | 16.0 | 0.00 | 0.00 | 0.00 | 77 | 1016.1 |
| 20260510123021 | 59 | 46 | 7.0 | 12.0 | 0.00 | 0.00 | 0.00 | 80 | 1016.0 |
| 20260510121600 | 59 | 41 | 6.0 | 10.0 | 0.00 | 0.00 | 0.00 | 80 | 1015.7 |
| 20260510120044 | 58 | 37 | 4.0 | 10.0 | 0.00 | 0.01 | 0.00 | 81 | 1015.5 |
| 20260510114527 | 58 | 26 | 6.0 | 11.0 | 0.00 | 0.01 | 0.00 | 81 | 1015.4 |
| 20260510113008 | 57 | 38 | 5.0 | 10.0 | 0.00 | 0.01 | 0.00 | 83 | 1015.1 |
| 20260510111549 | 58 | 30 | 6.0 | 9.0 | 0.00 | 0.01 | 0.00 | 81 | 1014.7 |
| 20260510110035 | 57 | 22 | 6.0 | 9.0 | 0.00 | 0.01 | 0.00 | 81 | 1014.5 |
| 20260510104517 | 57 | 29 | 5.0 | 8.0 | 0.00 | 0.01 | 0.00 | 80 | 1014.5 |
| 20260510103054 | 58 | 360 | 4.0 | 6.0 | 0.00 | 0.01 | 0.00 | 78 | 1014.7 |
| 20260510101536 | 57 | 355 | 4.0 | 6.0 | 0.00 | 0.01 | 0.00 | 80 | 1014.5 |
| 20260510100014 | 58 | 17 | 3.0 | 4.0 | 0.00 | 0.01 | 0.00 | 77 | 1014.0 |
| 20260510094607 | 59 | 29 | 1.0 | 3.0 | 0.00 | 0.01 | 0.00 | 77 | 1013.6 |
| 20260510093032 | 59 | 27 | 1.0 | 2.0 | 0.00 | 0.01 | 0.00 | 75 | 1013.4 |
| 20260510091519 | 60 | 27 | 2.0 | 4.0 | 0.00 | 0.01 | 0.00 | 74 | 1013.3 |
| 20260510090059 | 61 | 27 | 4.0 | 5.0 | 0.00 | 0.01 | 0.00 | 72 | 1013.2 |
| 20260510084557 | 61 | 114 | 1.0 | 2.0 | 0.00 | 0.01 | 0.00 | 72 | 1013.3 |
| 20260510083033 | 60 | 114 | 1.0 | 3.0 | 0.00 | 0.01 | 0.00 | 74 | 1013.0 |
| 20260510081528 | 60 | 114 | 2.0 | 4.0 | 0.00 | 0.01 | 0.00 | 75 | 1012.8 |
| 20260510080058 | 60 | 84 | 2.0 | 4.0 | 0.00 | 0.01 | 0.00 | 75 | 1013.0 |
| 20260510074544 | 60 | 360 | 4.0 | 5.0 | 0.00 | 0.01 | 0.00 | 75 | 1013.1 |
| 20260510073044 | 60 | 11 | 3.0 | 5.0 | 0.00 | 0.01 | 0.00 | 74 | 1012.9 |
| 20260510071514 | 60 | 96 | 2.0 | 4.0 | 0.00 | 0.01 | 0.00 | 73 | 1012.8 |
| 20260510070052 | 60 | 107 | 2.0 | 4.0 | 0.00 | 0.01 | 0.00 | 72 | 1012.9 |
| 20260510064536 | 60 | 112 | 1.0 | 2.0 | 0.00 | 0.01 | 0.00 | 71 | 1012.8 |
| 20260510063017 | 61 | 112 | 0.0 | 1.0 | 0.00 | 0.01 | 0.00 | 71 | 1012.9 |
| 20260510061603 | 62 | 112 | 0.0 | 2.0 | 0.00 | 0.01 | 0.00 | 70 | 1013.0 |
| 20260510060043 | 63 | 355 | 1.0 | 2.0 | 0.00 | 0.01 | 0.00 | 69 | 1013.1 |
| 20260510054524 | 63 | 355 | 1.0 | 9.0 | 0.00 | 0.01 | 0.00 | 68 | 1013.0 |
| 20260510053007 | 64 | 12 | 6.0 | 13.0 | 0.00 | 0.01 | 0.00 | 65 | 1013.1 |
| 20260510051543 | 65 | 234 | 2.0 | 4.0 | 0.00 | 0.01 | 0.00 | 63 | 1012.6 |
| 20260510050022 | 65 | 227 | 3.0 | 5.0 | 0.00 | 0.02 | 0.01 | 64 | 1012.3 |
| 20260510044504 | 67 | 207 | 2.0 | 5.0 | 0.00 | 0.02 | 0.01 | 61 | 1012.3 |
| 20260510043046 | 67 | 207 | 3.0 | 5.0 | 0.00 | 0.02 | 0.01 | 59 | 1012.2 |
| 20260510041534 | 66 | 197 | 2.0 | 5.0 | 0.00 | 0.02 | 0.01 | 60 | 1012.2 |
| 20260510040014 | 66 | 220 | 3.0 | 4.0 | 0.00 | 0.04 | 0.01 | 62 | 1012.0 |
| 20260510034600 | 67 | 229 | 2.0 | 4.0 | 0.00 | 0.04 | 0.01 | 57 | 1011.9 |
| 20260510033041 | 66 | 234 | 3.0 | 5.0 | 0.00 | 0.04 | 0.01 | 59 | 1012.0 |
| 20260510031522 | 63 | 215 | 3.0 | 4.0 | 0.00 | 0.04 | 0.01 | 64 | 1011.9 |
| 20260510030004 | 63 | 217 | 3.0 | 4.0 | 0.00 | 0.04 | 0.01 | 64 | 1011.6 |
| 20260510024542 | 64 | 215 | 2.0 | 4.0 | 0.00 | 0.04 | 0.01 | 62 | 1011.5 |
| 20260510023028 | 66 | 211 | 1.0 | 3.0 | 0.00 | 0.04 | 0.01 | 60 | 1011.0 |
| 20260510021514 | 68 | 212 | 1.0 | 3.0 | 0.00 | 0.04 | 0.01 | 55 | 1010.6 |
| 20260510020052 | 68 | 215 | 1.0 | 4.0 | 0.00 | 0.04 | 0.01 | 55 | 1010.3 |
| 20260510014538 | 70 | 221 | 2.0 | 3.0 | 0.00 | 0.04 | 0.01 | 53 | 1010.0 |
| 20260510013019 | 71 | 236 | 0.0 | 2.0 | 0.00 | 0.04 | 0.01 | 51 | 1009.8 |
| 20260510011506 | 73 | 236 | 0.0 | 0.0 | 0.00 | 0.04 | 0.01 | 50 | 1009.7 |
| 20260510010043 | 75 | 236 | 0.0 | 0.0 | 0.00 | 0.04 | 0.01 | 50 | 1009.6 |
| 20260510004531 | 76 | 236 | 0.0 | 3.0 | 0.00 | 0.04 | 0.01 | 44 | 1009.4 |
| 20260510003024 | 77 | 236 | 1.0 | 3.0 | 0.00 | 0.04 | 0.01 | 41 | 1009.3 |
| 20260510001557 | 78 | 236 | 1.0 | 4.0 | 0.00 | 0.04 | 0.01 | 43 | 1009.3 |
| 20260510001501 | 78 | 236 | 1.0 | 5.0 | 0.00 | 0.04 | 0.01 | 42 | 1009.3 |
| 20260510000044 | 78 | 236 | 3.0 | 5.0 | 0.00 | 0.04 | 0.01 | 43 | 1009.4 |
| 20260509234535 | 78 | 242 | 1.0 | 7.0 | 0.00 | 0.04 | 0.01 | 39 | 1009.3 |
| 20260509233017 | 79 | 259 | 2.0 | 6.0 | 0.00 | 0.04 | 0.01 | 39 | 1009.3 |
| 20260509231505 | 79 | 189 | 2.0 | 5.0 | 0.00 | 0.04 | 0.01 | 38 | 1009.3 |
| 20260509230051 | 79 | 224 | 4.0 | 9.0 | 0.00 | 0.04 | 0.01 | 38 | 1009.5 |
| 20260509224540 | 80 | 228 | 3.0 | 8.0 | 0.00 | 0.04 | 0.01 | 37 | 1009.3 |
| 20260509223022 | 80 | 241 | 4.0 | 10.0 | 0.00 | 0.04 | 0.01 | 39 | 1009.4 |
| 20260509221511 | 80 | 288 | 2.0 | 11.0 | 0.00 | 0.04 | 0.01 | 36 | 1009.5 |
| 20260509220056 | 81 | 198 | 5.0 | 9.0 | 0.00 | 0.04 | 0.01 | 37 | 1009.5 |
| 20260509214542 | 81 | 270 | 7.0 | 11.0 | 0.00 | 0.04 | 0.01 | 41 | 1009.5 |
| 20260509213022 | 80 | 271 | 6.0 | 9.0 | 0.00 | 0.04 | 0.01 | 40 | 1009.4 |
| 20260509211509 | 79 | 332 | 6.0 | 13.0 | 0.00 | 0.04 | 0.01 | 39 | 1009.6 |
| 20260509210105 | 79 | 313 | 8.0 | 15.0 | 0.00 | 0.04 | 0.01 | 38 | 1009.7 |
| 20260509204535 | 80 | 333 | 6.0 | 14.0 | 0.00 | 0.04 | 0.01 | 37 | 1009.8 |
| 20260509203025 | 80 | 281 | 6.0 | 14.0 | 0.00 | 0.04 | 0.01 | 41 | 1009.8 |
| 20260509201559 | 80 | 286 | 9.0 | 12.0 | 0.00 | 0.04 | 0.01 | 40 | 1010.1 |
| 20260509201503 | 80 | 268 | 8.0 | 12.0 | 0.00 | 0.04 | 0.01 | 40 | 1010.0 |
| 20260509200051 | 79 | 341 | 9.0 | 15.0 | 0.00 | 0.04 | 0.01 | 40 | 1010.2 |
| 20260509194531 | 79 | 306 | 8.0 | 10.0 | 0.00 | 0.04 | 0.01 | 41 | 1010.3 |
| 20260509193015 | 80 | 288 | 4.0 | 13.0 | 0.00 | 0.04 | 0.01 | 40 | 1010.4 |
| 20260509191559 | 79 | 277 | 8.0 | 12.0 | 0.00 | 0.04 | 0.01 | 40 | 1010.5 |
| 20260509190037 | 79 | 297 | 7.0 | 12.0 | 0.00 | 0.04 | 0.01 | 43 | 1010.5 |
| 20260509184536 | 79 | 325 | 7.0 | 11.0 | 0.00 | 0.04 | 0.01 | 42 | 1010.5 |
| 20260509183007 | 78 | 263 | 8.0 | 14.0 | 0.00 | 0.04 | 0.01 | 39 | 1010.5 |
| 20260509181549 | 78 | 280 | 9.0 | 16.0 | 0.00 | 0.04 | 0.01 | 38 | 1010.5 |
| 20260509180029 | 78 | 215 | 5.0 | 12.0 | 0.00 | 0.04 | 0.01 | 44 | 1010.6 |
| 20260509174511 | 77 | 292 | 7.0 | 11.0 | 0.00 | 0.04 | 0.01 | 46 | 1010.6 |
| 20260509173054 | 76 | 277 | 5.0 | 13.0 | 0.00 | 0.04 | 0.01 | 50 | 1010.8 |
| 20260509171533 | 76 | 329 | 9.0 | 13.0 | 0.00 | 0.04 | 0.01 | 48 | 1010.9 |
| 20260509170019 | 76 | 272 | 6.0 | 13.0 | 0.00 | 0.04 | 0.01 | 51 | 1011.1 |
| 20260509164556 | 75 | 325 | 10.0 | 17.0 | 0.00 | 0.04 | 0.01 | 54 | 1010.9 |
| 20260509163044 | 74 | 298 | 12.0 | 17.0 | 0.00 | 0.04 | 0.01 | 54 | 1010.9 |
| 20260509161520 | 74 | 312 | 11.0 | 14.0 | 0.00 | 0.04 | 0.01 | 58 | 1011.1 |
| 20260509160100 | 74 | 308 | 5.0 | 12.0 | 0.00 | 0.04 | 0.01 | 59 | 1011.0 |
| 20260509160001 | 74 | 293 | 5.0 | 12.0 | 0.00 | 0.04 | 0.01 | 59 | 1011.1 |
| 20260509154548 | 73 | 233 | 7.0 | 12.0 | 0.00 | 0.04 | 0.01 | 58 | 1010.9 |
| 20260509153022 | 72 | 281 | 4.0 | 9.0 | 0.00 | 0.04 | 0.01 | 63 | 1010.7 |
| 20260509151507 | 72 | 227 | 4.0 | 8.0 | 0.00 | 0.04 | 0.01 | 63 | 1010.8 |
| 20260509150041 | 70 | 257 | 2.0 | 8.0 | 0.00 | 0.04 | 0.01 | 69 | 1010.9 |
| 20260509144520 | 68 | 300 | 7.0 | 12.0 | 0.00 | 0.04 | 0.01 | 70 | 1010.8 |
| 20260509143058 | 67 | 271 | 7.0 | 10.0 | 0.00 | 0.04 | 0.01 | 73 | 1010.8 |
| 20260509141542 | 66 | 264 | 3.0 | 9.0 | 0.00 | 0.04 | 0.01 | 80 | 1010.7 |
| 20260509140017 | 63 | 272 | 4.0 | 7.0 | 0.00 | 0.04 | 0.01 | 86 | 1010.7 |
| 20260509134551 | 61 | 225 | 3.0 | 8.0 | 0.00 | 0.04 | 0.01 | 89 | 1010.7 |
| 20260509133032 | 60 | 222 | 5.0 | 8.0 | 0.00 | 0.04 | 0.01 | 92 | 1010.6 |